This is the latest recevied weather packets stored in our database for station/object IR9AK-10. If no packets are shown the sender has not sent any weather packets the latest 10 day(s).
| Time | Temp. | Humidity | Pressure | Rain* | Wind** | Luminosity | Snow |
|---|---|---|---|---|---|---|---|
| 1777480694 | 22.22° C | 62% | 1060 hPa | - | - | - | - |
| 1777480094 | 22.22° C | 62% | 1059.8 hPa | - | - | - | - |
| 1777479495 | 21.67° C | 63% | 1059.9 hPa | - | - | - | - |
| 1777478896 | 21.67° C | 62% | 1060 hPa | - | - | - | - |
| 1777478297 | 21.67° C | 61% | 1060.1 hPa | - | - | - | - |
| 1777477698 | 22.22° C | 60% | 1060.1 hPa | - | - | - | - |
| 1777477099 | 22.22° C | 59% | 1060.1 hPa | - | - | - | - |
| 1777476500 | 22.22° C | 61% | 1060.2 hPa | - | - | - | - |
| 1777475900 | 22.22° C | 58% | 1060.1 hPa | - | - | - | - |
| 1777475301 | 22.22° C | 60% | 1060.2 hPa | - | - | - | - |
| 1777474701 | 22.22° C | 60% | 1060.2 hPa | - | - | - | - |
| 1777474102 | 22.78° C | 60% | 1060.4 hPa | - | - | - | - |
| 1777473503 | 22.78° C | 62% | 1060.4 hPa | - | - | - | - |
| 1777472904 | 22.78° C | 64% | 1060.2 hPa | - | - | - | - |
| 1777472306 | 22.78° C | 60% | 1060.2 hPa | - | - | - | - |
| 1777471706 | 23.33° C | 53% | 1060.4 hPa | - | - | - | - |
| 1777471106 | 23.89° C | 51% | 1060.4 hPa | - | - | - | - |
| 1777470506 | 24.44° C | 48% | 1060.5 hPa | - | - | - | - |
| 1777469907 | 24.44° C | 47% | 1060.5 hPa | - | - | - | - |
| 1777469308 | 25° C | 46% | 1060.5 hPa | - | - | - | - |
| 1777469048 | 25.56° C | 47% | 1060.4 hPa | - | - | - | - |
| 1777468709 | 25.56° C | 47% | 1060.4 hPa | - | - | - | - |
| 1777468109 | 25° C | 48% | 1060.4 hPa | - | - | - | - |
| 1777467510 | 25.56° C | 49% | 1060.5 hPa | - | - | - | - |
| 1777466910 | 25° C | 48% | 1060.5 hPa | - | - | - | - |
* Rain since midnight (hover to see other rain measurements)
** Current wind speed in m/s (hover to see current wind gust speed)